Temperature
21 22 21 20 19 18 17 17 17 17 16 16 16 16 16 15 15 15 15 15 14 14 14 14 14 14 14 15 15 15 15 14 14 14 14 14 14 14 14 14 13 14 14
22 22 21 20 18 18 17 17 17 17 16 16 16 16 16 15 15 15 15 15 14 14 14 14 14 14 14 15 15 15 15 14 14 14 14 14 14 14 14 14 14 14 14
22 22 21 20 18 18 17 17 17 16 16 16 16 16 16 15 15 15 15 14 14 14 14 14 14 15 15 15 15 15 14 14 14 13 13 13 14 14 14 14 14 14 14
21 21 21 20 18 17 17 17 16 16 16 16 16 16 16 15 15 15 15 15 15 14 14 14 15 15 15 14 14 14 14 14 13 13 13 13 14 14 14 14 14 14 14
19 20 20 19 18 17 17 17 16 16 16 16 16 16 16 16 15 15 15 15 15 14 14 14 15 15 14 14 14 14 14 13 13 13 13 13 14 14 14 14 14 14 13
18 19 19 18 17 17 17 16 16 16 16 16 16 16 16 15 15 15 15 15 15 14 14 15 15 15 14 14 14 14 13 13 13 13 13 13 13 14 13 13 13 13 13
17 18 18 18 17 16 16 16 16 16 16 16 16 16 16 16 15 15 15 15 15 14 14 15 15 14 14 14 14 14 13 13 13 13 13 13 13 13 13 13 13 13 13
18 17 18 17 17 16 16 16 16 16 16 16 16 16 16 16 15 15 15 15 15 14 14 14 15 14 14 14 14 14 13 13 13 13 13 13 13 13 13 13 13 13 13
17 17 17 17 16 16 16 16 16 16 16 16 16 16 16 16 16 15 15 15 15 15 15 15 15 15 14 14 14 14 13 13 13 12 13 13 13 13 13 13 13 13 13
17 17 17 16 16 16 16 16 16 16 16 16 16 17 16 16 16 16 15 15 15 15 15 15 15 15 15 14 14 14 13 13 12 12 13 13 13 13 13 13 13 13 13
17 16 16 16 16 16 16 16 16 16 16 16 16 17 17 16 16 16 16 15 15 15 15 15 15 15 15 14 14 14 13 13 12 12 13 13 13 13 13 13 13 13 13
17 16 16 16 16 16 16 16 16 16 16 16 17 17 17 16 16 16 16 16 15 15 15 15 15 15 15 14 14 14 13 13 12 12 13 12 13 13 13 13 13 13 13
16 16 16 16 16 15 15 16 16 16 16 16 16 16 16 15 15 16 16 16 16 15 15 15 15 15 14 14 14 13 13 13 12 12 13 12 13 13 13 13 13 13 12
16 16 16 16 15 15 15 15 15 15 16 16 15 16 15 15 15 16 16 16 16 16 15 15 15 15 14 13 13 13 13 13 12 12 13 12 13 13 13 13 12 12 12
16 16 16 16 15 15 15 15 15 15 15 15 15 15 15 15 15 16 16 16 16 15 15 15 15 14 14 13 13 13 13 12 12 12 13 13 13 13 12 12 12 12 12
16 15 15 16 15 15 15 15 15 15 15 15 15 15 15 15 15 15 15 15 15 15 15 15 15 14 14 13 13 13 13 12 12 12 12 12 13 13 12 12 12 12 11
16 15 15 15 15 15 15 15 15 15 15 15 15 15 15 15 15 15 15 15 15 15 14 14 14 13 13 13 13 13 13 12 12 12 12 12 13 12 12 12 12 12 11
16 15 15 15 15 15 15 15 15 15 15 15 15 15 16 15 15 15 15 15 15 15 14 14 14 13 13 13 13 13 13 12 12 12 12 12 12 13 12 12 12 12 11
16 16 15 15 15 15 15 15 15 15 15 15 15 15 16 16 15 15 15 15 14 14 14 14 13 13 13 13 13 13 12 12 12 12 11 11 12 12 12 12 12 12 11
16 16 16 15 15 15 15 15 15 15 15 15 15 15 15 15 15 15 15 15 14 14 14 13 13 13 13 13 12 12 12 12 12 12 11 11 11 12 12 12 12 11 11
16 16 16 16 15 15 15 15 15 15 15 15 15 15 15 15 15 15 15 14 14 14 14 13 13 13 12 12 11 11 11 11 11 12 11 11 11 11 11 11 11 11 11
16 16 16 16 16 15 15 15 15 15 15 16 16 16 15 15 15 15 14 14 14 13 13 13 13 12 12 12 11 11 11 11 11 11 11 11 11 11 11 11 11 11 11
15 15 15 15 15 15 15 15 15 15 15 15 16 16 16 15 15 14 14 14 13 13 13 13 12 12 12 12 11 11 11 11 12 11 11 11 11 10 10 10 9 9 9
14 15 15 15 15 15 15 15 15 15 15 15 15 16 16 15 15 14 14 13 13 13 12 12 12 12 12 11 11 11 11 11 11 11 11 11 10 10 9 9 9 8 8
13 14 14 14 14 15 15 14 14 14 14 14 14 14 14 14 14 14 13 13 13 12 12 12 12 11 11 11 11 11 11 10 10 11 11 10 10 10 9 9 8 8 8
12 13 13 13 14 14 14 14 14 14 14 14 13 13 13 13 13 13 13 12 12 12 12 11 11 11 11 11 11 11 11 10 10 10 10 10 10 9 9 8 7 7 7
Wind_Speed
12 17 21 20 18 17 17 17 16 16 15 14 14 14 13 12 12 11 10 10 10 11 12 13 13 14 15 15 15 15 15 14 14 14 15 15 14 14 14 14 13 13 12
17 20 22 21 19 18 18 17 16 16 15 15 14 13 12 11 10 10 9 9 10 11 13 13 14 14 14 15 15 14 13 11 10 11 13 14 14 13 14 15 14 12 12
18 20 21 21 20 19 18 18 17 16 15 14 13 12 11 10 9 9 9 10 10 12 13 14 14 14 14 13 13 13 11 8 6 5 6 11 13 13 13 13 13 13 12
18 19 19 21 20 19 19 18 17 16 15 14 13 12 10 9 9 9 9 10 12 13 14 15 14 14 13 13 12 11 8 5 4 3 6 12 13 13 13 13 13 13 13
15 18 20 21 20 20 20 19 17 16 14 13 12 11 10 9 9 10 11 12 14 14 15 14 14 13 12 12 11 8 5 5 7 8 15 17 14 14 15 15 15 15 16
15 18 20 20 20 20 19 18 17 16 15 13 12 12 11 10 10 11 12 14 14 14 14 13 13 12 11 10 9 6 4 6 6 12 15 16 14 15 17 17 17 18 18
15 18 19 20 20 20 19 18 17 16 15 14 13 12 11 11 12 13 14 14 14 14 13 12 12 11 10 9 7 4 4 8 7 14 17 16 15 16 16 17 17 17 17
15 16 18 19 19 19 19 18 17 16 15 13 12 12 12 12 13 14 13 14 13 13 12 11 11 10 9 8 6 3 5 7 9 15 16 15 15 15 15 15 16 15 15
15 14 14 16 17 19 18 18 17 16 15 13 12 12 13 13 13 13 13 13 13 12 11 10 10 9 8 7 5 2 3 5 7 11 14 13 14 14 14 14 14 14 14
13 13 11 14 15 15 16 17 17 16 15 14 13 13 14 13 13 13 13 13 12 12 11 10 9 8 8 7 4 1 2 4 3 12 13 13 13 12 12 12 12 12 13
10 11 10 11 13 15 15 15 17 16 15 14 13 15 14 12 12 12 13 13 12 11 11 10 9 8 8 7 5 3 4 5 7 12 14 13 11 11 11 10 11 11 11
8 9 9 10 10 13 13 14 13 13 14 13 13 14 12 12 13 12 15 14 13 12 11 10 9 9 9 8 7 6 8 7 9 12 13 13 11 10 10 9 10 10 10
6 6 7 8 8 8 8 11 10 11 13 13 15 16 14 12 12 13 12 12 12 12 10 10 9 10 10 10 10 9 8 3 9 12 14 13 11 10 9 8 9 9 9
8 6 5 5 7 7 9 8 8 8 9 9 13 17 13 7 8 10 10 12 12 11 11 11 10 11 10 9 10 9 6 3 9 13 13 13 11 10 9 8 8 8 8
10 9 6 5 6 5 6 5 6 6 8 10 12 15 13 7 5 7 8 11 12 12 11 9 9 8 7 7 7 5 5 5 10 14 14 13 12 10 9 8 8 7 7
9 10 8 7 5 5 5 5 4 6 8 9 10 11 12 11 8 6 5 7 9 11 12 10 8 6 5 4 4 5 5 5 8 13 15 14 13 12 10 9 8 7 7
8 9 10 9 8 7 6 6 5 5 7 6 9 12 12 11 11 8 4 4 8 11 11 9 8 6 4 3 3 4 5 6 7 11 16 15 14 13 12 11 10 9 7
8 9 10 9 9 8 7 6 4 6 6 6 9 12 13 13 12 9 4 5 10 11 8 4 4 4 4 4 3 3 3 4 6 9 13 16 16 14 13 12 12 10 9
7 8 9 9 9 9 8 5 4 5 5 6 8 9 12 14 14 10 5 6 10 7 5 5 5 5 4 5 4 4 3 3 4 5 8 13 16 17 16 14 13 12 11
5 6 7 8 9 8 7 5 4 4 4 5 6 8 11 13 14 11 7 8 9 5 6 6 6 5 5 5 4 4 4 4 4 4 5 8 13 16 18 17 15 13 13
5 5 5 7 8 7 6 6 6 6 5 5 5 8 11 12 13 11 5 6 6 7 8 8 6 6 5 4 3 2 2 3 5 5 5 5 8 14 16 18 17 16 14
4 3 3 4 5 6 5 5 5 4 4 5 5 6 10 10 11 10 8 8 8 7 8 9 7 6 5 6 5 3 3 4 5 6 5 6 6 10 11 15 17 17 16
2 2 1 2 2 3 4 3 2 3 3 4 5 7 8 10 10 10 9 7 8 8 8 9 9 10 7 7 5 5 5 6 4 4 7 6 6 5 6 10 12 15 15
2 2 1 1 1 1 2 3 4 4 5 6 5 6 7 9 10 11 10 9 9 8 9 9 10 8 8 7 5 5 4 3 4 3 2 4 5 4 4 5 7 10 12
4 3 2 2 2 1 0 2 3 4 5 4 4 5 6 7 9 10 10 9 10 9 9 9 9 9 9 8 6 4 5 3 2 4 4 3 3 3 3 3 5 7 10
4 3 2 2 2 2 2 2 2 3 4 4 5 5 5 4 5 8 8 8 9 9 9 9 9 10 10 9 8 6 5 4 6 5 4 3 4 3 2 2 3 5 8
Wind_Direction
128 139 147 143 141 139 137 136 136 136 135 132 128 123 117 112 109 105 102 100 99 98 95 94 92 88 84 82 83 82 82 83 85 84 81 75 71 70 63 60 71 72 71
131 141 146 142 142 140 138 135 133 131 130 128 126 122 117 112 109 108 107 106 105 103 98 95 93 90 86 83 84 84 85 90 95 97 94 84 75 70 66 63 67 70 69
131 141 145 142 142 141 137 133 130 128 127 127 125 121 117 113 111 110 108 109 108 107 101 97 94 92 90 87 85 84 86 87 88 96 105 98 82 74 71 69 69 68 66
131 142 146 142 142 141 138 135 132 130 129 126 123 120 117 114 114 111 112 112 111 109 105 101 98 95 93 89 87 86 82 68 41 30 88 93 82 77 75 74 73 70 69
132 143 139 142 142 141 139 137 136 134 131 127 123 120 117 114 114 114 112 113 110 108 107 105 101 98 95 91 89 87 73 30 11 58 79 81 79 78 76 77 75 72 73
134 131 138 140 141 140 140 139 138 136 133 130 125 121 117 113 113 114 114 113 112 113 113 110 106 102 98 94 91 82 41 3 17 71 78 82 80 81 79 77 76 74 72
128 128 140 139 140 141 141 141 140 137 136 133 128 123 119 117 116 115 116 116 116 116 116 115 111 106 102 98 93 71 13 2 70 81 79 79 80 81 80 79 77 74 73
122 129 138 138 140 142 143 143 142 139 138 135 133 128 122 120 121 122 120 122 121 120 118 116 115 110 107 103 97 61 9 14 74 91 89 84 84 84 82 81 79 77 75
122 128 137 142 142 144 144 145 143 140 140 139 137 131 125 122 124 126 126 128 126 124 122 120 120 118 115 111 108 80 358 10 61 95 97 92 90 88 86 84 82 79 77
128 136 144 148 148 148 147 147 144 143 143 141 137 131 129 128 130 133 132 132 130 128 128 128 128 127 125 124 129 159 296 320 87 99 102 101 97 93 90 89 85 83 81
133 141 149 151 155 156 155 152 146 147 148 142 140 141 143 146 145 148 139 138 136 134 135 137 138 138 139 143 159 202 256 267 105 103 108 111 106 102 98 96 93 90 88
141 144 151 157 157 161 158 151 155 155 156 161 158 161 175 176 167 155 145 146 146 145 146 150 154 160 166 170 184 213 246 238 128 116 121 122 116 113 109 105 102 99 94
155 146 153 159 157 155 143 157 165 167 169 184 172 178 197 181 149 138 145 150 153 157 161 163 172 195 207 188 183 210 238 207 124 123 132 131 129 127 123 119 115 110 104
173 169 168 167 161 157 151 164 166 168 171 186 179 183 194 167 152 157 162 170 174 183 178 176 196 213 214 191 188 204 201 122 114 123 136 139 140 141 138 135 130 123 117
174 173 178 186 176 167 156 165 171 170 172 185 179 186 185 160 163 169 176 176 184 187 181 188 204 202 202 198 201 191 161 156 135 134 143 149 152 155 155 152 147 141 134
171 171 175 190 193 185 170 166 173 174 175 181 175 187 185 172 177 175 181 176 185 187 183 192 204 192 193 194 189 175 165 163 147 143 150 155 161 165 169 169 165 159 152
174 175 178 187 193 196 191 180 183 186 179 183 176 190 195 189 184 180 181 176 185 190 188 190 201 194 183 183 189 183 180 180 166 152 156 161 166 173 179 182 178 174 169
176 183 185 188 190 195 198 192 186 193 190 188 184 189 196 201 192 183 182 185 188 189 188 179 188 184 182 179 185 196 176 168 177 172 166 167 171 177 184 189 185 183 182
179 185 186 184 188 194 196 196 196 198 199 192 192 193 198 202 200 189 189 192 191 187 182 185 187 180 183 189 191 192 187 176 191 189 176 172 173 175 180 187 186 186 188
182 187 188 185 188 189 188 196 200 206 207 204 201 202 202 203 203 195 194 197 193 188 189 185 187 190 185 183 188 189 195 189 187 197 196 181 174 172 176 180 180 184 190
183 195 195 189 191 186 185 191 197 207 208 210 215 215 211 207 205 201 198 199 197 197 193 187 182 192 196 169 155 198 253 221 203 204 199 189 181 180 177 178 182 184 190
172 181 203 202 192 187 187 190 193 194 207 210 208 220 224 218 212 209 205 204 202 201 198 195 188 186 193 177 161 150 220 253 248 217 199 203 194 184 186 185 184 182 186
129 151 201 229 207 185 175 176 182 193 205 211 214 217 221 225 225 218 213 210 207 205 208 204 196 191 196 196 183 170 181 213 218 225 212 201 194 184 188 192 189 184 180
99 61 21 325 301 190 173 177 188 205 216 222 222 221 217 219 224 224 219 214 215 212 213 211 205 202 190 197 209 219 213 169 168 203 250 213 190 182 179 184 184 181 176
80 54 18 350 340 346 286 205 207 226 232 240 241 238 229 223 222 224 221 217 219 218 217 214 210 208 204 199 194 195 221 233 202 169 204 222 215 200 174 165 166 169 173
94 69 31 6 355 356 344 310 253 248 250 259 263 257 249 239 228 225 225 224 223 220 219 218 216 214 214 209 204 194 185 193 204 198 194 185 204 214 184 158 165 171 178
Height
1511 1513 1516 1519 1522 1525 1528 1530 1533 1535 1537 1539 1540 1541 1542 1543 1544 1544 1545 1545 1546 1546 1547 1548 1548 1548 1548 1548 1549 1549 1550 1551 1552 1553 1554 1555 1555 1556 1557 1557 1557 1558 1558
1509 1513 1516 1519 1522 1525 1528 1531 1534 1536 1538 1539 1541 1542 1543 1543 1544 1545 1545 1546 1547 1548 1548 1549 1549 1549 1550 1550 1551 1551 1552 1553 1554 1555 1556 1557 1557 1558 1558 1559 1559 1559 1559
1509 1513 1516 1520 1522 1526 1529 1531 1534 1536 1538 1540 1541 1542 1543 1544 1544 1545 1546 1547 1548 1549 1550 1551 1551 1551 1551 1552 1553 1553 1555 1556 1557 1557 1558 1559 1559 1560 1560 1560 1561 1561 1561
1510 1513 1517 1520 1523 1526 1529 1532 1534 1537 1539 1540 1541 1542 1543 1544 1544 1545 1546 1547 1549 1550 1552 1552 1553 1553 1553 1554 1555 1556 1557 1558 1559 1560 1560 1561 1561 1561 1562 1562 1562 1562 1562
1510 1514 1517 1520 1523 1526 1529 1532 1535 1537 1539 1540 1542 1543 1543 1544 1545 1546 1547 1548 1550 1552 1553 1554 1554 1555 1556 1556 1557 1558 1559 1560 1561 1562 1562 1563 1563 1563 1563 1563 1563 1564 1564
1512 1514 1518 1521 1524 1527 1530 1533 1535 1537 1539 1540 1542 1543 1544 1544 1545 1547 1548 1549 1551 1553 1554 1555 1556 1557 1557 1558 1559 1561 1562 1562 1563 1563 1564 1564 1564 1564 1564 1565 1565 1565 1565
1513 1514 1518 1521 1524 1528 1530 1533 1535 1537 1539 1540 1542 1543 1544 1545 1546 1547 1549 1551 1552 1554 1556 1557 1557 1558 1559 1560 1561 1562 1563 1564 1564 1565 1565 1565 1566 1566 1565 1566 1566 1566 1566
1513 1515 1519 1522 1525 1528 1531 1533 1535 1537 1539 1540 1542 1543 1544 1545 1547 1548 1550 1552 1553 1555 1556 1558 1559 1560 1560 1562 1563 1564 1565 1565 1566 1566 1566 1566 1566 1566 1566 1566 1566 1566 1566
1514 1516 1519 1522 1525 1528 1531 1533 1535 1537 1539 1540 1542 1543 1544 1546 1547 1549 1550 1552 1554 1556 1557 1558 1559 1560 1561 1563 1564 1565 1566 1567 1567 1567 1566 1567 1567 1567 1566 1566 1566 1566 1565
1515 1517 1519 1522 1525 1528 1531 1533 1535 1537 1538 1540 1542 1543 1545 1546 1548 1549 1551 1553 1554 1556 1557 1559 1560 1561 1562 1563 1564 1565 1566 1567 1567 1567 1567 1567 1567 1567 1566 1566 1565 1565 1565
1516 1518 1520 1522 1525 1528 1530 1532 1534 1536 1538 1540 1541 1543 1545 1546 1548 1549 1551 1553 1554 1556 1557 1559 1560 1561 1562 1563 1565 1566 1567 1567 1567 1567 1567 1567 1567 1566 1566 1566 1565 1565 1564
1516 1519 1521 1523 1525 1528 1529 1531 1534 1535 1537 1539 1541 1542 1544 1546 1547 1549 1550 1552 1554 1556 1557 1558 1560 1561 1562 1563 1564 1566 1567 1567 1567 1566 1567 1567 1566 1566 1566 1565 1565 1564 1564
1515 1518 1520 1523 1525 1528 1529 1531 1532 1534 1536 1538 1540 1542 1544 1545 1547 1548 1550 1551 1553 1555 1556 1558 1559 1560 1561 1562 1564 1565 1566 1567 1566 1565 1566 1566 1566 1565 1565 1565 1564 1564 1563
1514 1516 1519 1522 1525 1527 1528 1530 1532 1533 1535 1537 1539 1541 1543 1544 1546 1547 1549 1550 1552 1553 1555 1556 1558 1559 1560 1561 1563 1564 1565 1566 1565 1564 1564 1564 1564 1564 1564 1564 1563 1563 1563
1512 1514 1517 1520 1523 1525 1527 1529 1531 1533 1534 1536 1538 1540 1542 1543 1545 1546 1547 1548 1550 1551 1553 1555 1556 1557 1559 1560 1561 1562 1563 1564 1563 1562 1563 1563 1563 1563 1563 1563 1562 1562 1562
1510 1512 1515 1518 1520 1523 1525 1527 1530 1532 1533 1535 1537 1538 1540 1541 1543 1544 1546 1547 1548 1550 1551 1553 1554 1556 1557 1558 1559 1560 1561 1561 1561 1560 1560 1560 1561 1561 1561 1561 1561 1561 1560
1508 1510 1512 1515 1518 1520 1523 1525 1527 1530 1531 1533 1534 1536 1538 1539 1541 1542 1543 1545 1546 1548 1549 1550 1552 1553 1554 1555 1556 1557 1558 1558 1559 1558 1557 1558 1558 1558 1558 1559 1559 1559 1559
1505 1508 1510 1512 1515 1517 1520 1523 1525 1527 1529 1530 1532 1533 1535 1537 1538 1539 1541 1542 1543 1545 1546 1548 1549 1550 1551 1552 1553 1554 1555 1555 1555 1556 1555 1554 1555 1555 1556 1556 1556 1556 1556
1503 1505 1507 1509 1511 1514 1517 1520 1522 1524 1526 1527 1529 1530 1532 1533 1535 1536 1537 1539 1540 1541 1543 1544 1545 1547 1548 1549 1549 1550 1551 1551 1552 1552 1552 1551 1551 1551 1552 1553 1553 1553 1553
1500 1502 1504 1506 1509 1511 1514 1516 1518 1520 1522 1524 1525 1527 1528 1529 1531 1532 1533 1535 1536 1537 1538 1539 1541 1542 1544 1545 1546 1546 1547 1547 1548 1548 1548 1548 1548 1547 1548 1549 1549 1549 1550
1496 1499 1501 1503 1505 1507 1509 1511 1513 1515 1518 1520 1521 1523 1524 1525 1527 1528 1529 1530 1531 1532 1534 1535 1536 1538 1539 1541 1542 1542 1542 1542 1542 1543 1544 1544 1543 1543 1543 1543 1544 1545 1545
1492 1495 1497 1499 1501 1503 1505 1507 1509 1511 1513 1515 1517 1518 1520 1521 1522 1523 1524 1525 1526 1527 1529 1530 1531 1532 1533 1535 1536 1537 1537 1538 1536 1536 1537 1538 1538 1538 1538 1538 1539 1539 1540
1488 1490 1493 1495 1497 1499 1501 1503 1505 1507 1508 1510 1511 1513 1514 1515 1516 1517 1518 1519 1520 1522 1522 1524 1525 1526 1527 1529 1530 1531 1530 1528 1529 1530 1530 1531 1532 1532 1532 1533 1533 1534 1534
1484 1486 1488 1491 1493 1495 1497 1498 1500 1501 1502 1504 1506 1507 1508 1509 1510 1511 1512 1513 1514 1515 1516 1518 1519 1520 1521 1521 1523 1523 1525 1525 1525 1523 1524 1524 1525 1525 1526 1526 1527 1528 1528
1480 1482 1484 1486 1488 1490 1492 1493 1495 1496 1497 1499 1500 1501 1502 1503 1504 1505 1506 1507 1508 1509 1510 1511 1512 1513 1514 1514 1515 1516 1517 1519 1519 1519 1518 1518 1518 1518 1519 1520 1520 1521 1521
1477 1479 1481 1482 1484 1486 1487 1489 1490 1491 1492 1493 1494 1495 1496 1497 1497 1498 1499 1500 1501 1502 1503 1504 1505 1506 1507 1508 1508 1509 1510 1511 1511 1512 1511 1511 1511 1512 1513 1513 1513 1514 1514